Home > Weather > Gloucester > Past weeks

Flag for USA Weather for the Past 2 Weeks in Gloucester, Massachusetts, USA

Now
47 °F

Overcast.


Feels Like: 42 °F
Forecast: 42 / 50 °F
Wind: 9 mph from Southeast

Location: Beverly Municipal Airport

Current Time: May 1, 2016 at 7:19:05 PM

Latest Report: May 1, 2016 at 5:53 PM


Visibility: 10 mi

Pressure: 30.18 "Hg

Humidity: 54%

Dew Point: 31 °F

Location of GloucesterLocation

Historic Weather in Gloucester — Graph

°F

Gloucester Temperature Yesterday

Maximum temperature yesterday: 57 °F (at 11:53 AM)
Minimum temperature yesterday: 39 °F (at 5:53 AM)
Average temperature yesterday: 48 °F

High & Low Weather Summary for the Past Weeks

 TemperatureHumidityPressure
High74 °F (Apr 22, 2:53 PM)93% (Apr 22, 10:53 PM)30.45 "Hg (Apr 22, 10:53 PM)
Low31 °F (Apr 27, 2:53 AM)16% (Apr 21, 11:53 AM)29.73 "Hg (Apr 23, 4:53 AM)
Average49 °F55%30.04 "Hg
* Reported Apr 16 5:53 PM — May 1 5:53 PM, Gloucester, Weather by CustomWeather, © 2016

Note: Actual official high and low records may vary slightly from our data, if they occured in-between our weather recording intervals... More about our weather records

Advertising

Gloucester Weather History for the Previous 24 Hours

Scroll right to see more
 ConditionsComfort  
Time TempWeatherWind HumidityBarometerVisibility
5:53 PM
Sun, May 1
47 °FOvercast.9 mph54%30.18 "Hg10 mi
4:53 PM48 °FMore clouds than sun.8 mph46%30.19 "Hg10 mi
3:53 PM48 °FLight rain. Mostly cloudy.7 mph56%30.21 "Hg10 mi
2:53 PM50 °FLight rain. Mostly cloudy.7 mph61%30.22 "Hg10 mi
1:53 PM50 °FLight rain. Mostly cloudy.7 mph68%30.22 "Hg10 mi
12:53 PM50 °FLight rain. Overcast.7 mph57%30.22 "Hg10 mi
11:53 AM49 °FLight rain. Overcast.6 mph61%30.24 "Hg10 mi
10:53 AM51 °FMostly cloudy.8 mph39%30.22 "Hg10 mi
9:53 AM51 °FMore clouds than sun.9 mph38%30.23 "Hg10 mi
8:53 AM51 °FPartly sunny.7 mph48%30.23 "Hg10 mi
7:53 AM48 °FPartly sunny.6 mph56%30.23 "Hg10 mi
6:53 AM46 °FOvercast.No wind61%30.23 "Hg10 mi
5:53 AM44 °FClear.No wind63%30.22 "Hg10 mi
4:53 AM43 °FClear.3 mph62%30.21 "Hg10 mi
3:53 AM44 °FClear.3 mph60%30.22 "Hg10 mi
2:53 AM43 °FClear.5 mph62%30.21 "Hg10 mi
1:53 AM44 °FClear.5 mph63%30.21 "Hg10 mi
12:53 AM44 °FClear.5 mph63%30.23 "Hg10 mi
11:53 PM
Sat, Apr 30
47 °FClear.8 mph56%30.23 "Hg10 mi
10:53 PM47 °FClear.7 mph61%30.21 "Hg10 mi
9:53 PM48 °FClear.7 mph59%30.22 "Hg10 mi
8:53 PM47 °FClear.9 mph64%30.22 "Hg10 mi
7:53 PM47 °FSunny.12 mph54%30.21 "Hg10 mi
Weather by CustomWeather, © 2016

See weather overviewHow to use our weather pages